Location: Nairn
(57.5833°N, 3.8667°W)
Time: 02:47:35
(UTC+00:00)

Cosmos 2233 Rocket - Pass Details

Date: 07 August 2020
Orbit: 952 x 992 km, 82.9° (Epoch: 27 September)

Event Time Altitude Azimuth Distance (km) Brightness Sun altitude
Exits shadow 00:10:38 23° 189° (S) 1,956 5.0 -16.0°
Maximum altitude 00:14:47 89° 100° (E) 1,001 4.0 -16.1°
Drops below altitude 10° 00:21:10 10° 13° (NNE) 2,770 7.6 -16.1°
Sets 00:23:42 0° 13° (NNE) 3,721 8.7 -16.1°
